CZ-6A R/B, 60214

Orbit data source: Space-Track

CZ-6A R/B, 60214 is space debris in SSO originally from a launch on Thu, 04 Jul 2024 UTC launched from the Taiyaun Space Center, China (TSC). Debris objects in space refer to the collection of defunct objects orbiting the Earth. Examples of debris include non-operational satellites, rocket bodies, and fragments generated from explosions, collisions, or faulty payload assembly.

Loading next visibility...
Identifier
60214, 2024-126D
Orbit
SSO
Country
Flag of CNCN / PRC
Related business
Manufacturer
SAST
Mission
Spacecraft
Bus & Motor
CZ-6A STAGE 2, YF-115
Mass
~6,000 kg wet, ~6,000 kg dry
Launch date (UTC)
2024-07-04 (1 year ago)
Launch vehicle
Unknown
Launch site
Taiyaun Space Center, China (TSC)
Object type
Payload
Rocket body
Debris
Shape & HBR
Unknown shape, 5.5 m
Radar Cross Section
Large (>1 m²)

Expand to show TLE details & history
Last TLE update: 15 hours ago

TLE from 15 hours ago
0 CZ-6A R/B
1 60214U 24126D   25353.51164669  .00003212  00000-0  17813-3 0  9995
2 60214  97.7947  15.5992 0070557  16.7658 343.5880 15.12418857 80265
Epoch: 2025-12-19T12:16Z
TLE epoch observation values (Epoch: 2025-12-19T12:16:46.274Z)
Latitude
-0.00006°
Longitude
103.05465°
Altitude
485.164 km
Speed
7.648 km/s
True Right ascension
01h 02m 23s
True Declination
0° 00' 00"
Sunlit
Object was in daylight at epoch
Visualization orbit readout
Latitude
Unknown
Longitude
Unknown
Altitude
Unknown
Speed
Unknown
Apparent Right ascension
Unknown
Apparent Declination
Unknown
Sunlit
N/A
Visualization observer readout
Local Sidereal Time
02:35:35
Azimuth
Unknown
Elevation
Unknown
Doppler factor
Unknown
Orbital elements
Apogee altitude
574.531 km
Perigee altitude
477.106 km
Semi-major axis
6,903.956 km
Eccentricity
0.00706
Inclination
97.7947°
RAAN
15.5992°
Arg. of periapsis
16.7658°
True anomaly
343.35761°
Mean anomaly
343.588°
Eccentric anomaly
343.473°
Mean motion
3.78352 °/min
Orbital period
95.15 mins
BSTAR
0.00017813
Loading maneuver chart data...
Computing Atmospheric mass density...
Loading historical data...
Loading historical data...
Loading historical data...
Loading historical data...
Loading historical data...
Loading historical data...
Loading historical data...
Other satellites on launch #126 in the year 2024 (2024-07-04 UTC)

Documentation

Showing up to 5 results
|